TITAN 3C TRANSTAGE R/B, 11147

Orbit data source: Space-Track

TITAN 3C TRANSTAGE R/B, 11147 is space debris in GEO originally from a launch on Thu, 14 Dec 1978 UTC launched from the Air Force Eastern Test Range (AFETR). Debris objects in space refer to the collection of defunct objects orbiting the Earth. Examples of debris include non-operational satellites, rocket bodies, and fragments generated from explosions, collisions, or faulty payload assembly.

Loading next visibility...
Identifier
11147, 1978-113D
Orbit
GEO
Last TLE update
23 hours ago
Origin
Manufacturer
Martin Marietta
Mission
Spacecraft
Bus & Motor
TRANSTAGE, Unknown motor
Mass
~1,950 kg wet, ~1,950 kg dry
Launch date (UTC)
1978-12-14 (46 years ago)
Launch vehicle
Unknown
Launch site
Air Force Eastern Test Range (AFETR)
Object type
Payload
Rocket body
Debris
Shape & HBR
Cyl + 2 Nozzle, 4.6 m
Radar Cross Section
14.974 m², Large (>1 m²)

Expand to show TLE details & history

TLE from 23 hours ago
0 TITAN 3C TRANSTAGE R/B
1 11147U 78113D   25128.80708339 -.00000220  00000-0  00000-0 0  9995
2 11147  11.6646 308.7086 0255490  58.5503 129.8277  0.93756490110576
Epoch: 2025-05-08T19:22Z
Definitive object data (Epoch: 2025-05-08T19:22:12.004Z)
Latitude
-2.15624°
Longitude
-18.32167°
Altitude
38,453.903 km
Speed
2.957 km/s
True Right ascension
09h 16m 24s
True Declination
-2° 09' 15"
Sunlit
Object was in daylight at TLE epoch
Visualization TLE readout
Latitude
4.9288°
Longitude
-53.48519°
Altitude
37,804.712 km
Speed
3.001 km/s
Apparent Right ascension
07h 20m 00s
Apparent Declination
0° 22' 40"
Sunlit
Object is in daylight
Visualization observer readout
Local Sidereal Time
02:32:58
Azimuth
102.232° ESE
Elevation
13.641°
Doppler factor
1
Orbital elements
Apogee altitude
38,845.644 km
Perigee altitude
36,592.368 km
Semi-major axis
44,097.143 km
Eccentricity
0.025549
Inclination
11.6646°
RAAN
308.7086°
Arg. of periapsis
58.5503°
True anomaly
132.03045°
Mean anomaly
129.8277°
Eccentric anomaly
130.93359°
Mean motion
0.23438 °/min
BSTAR
Unknown
Orbital period
1535.94 mins
Loading historical data...
11147 neighbors
Loading maneuver chart data...
Loading SW <> Apogee altitude chart data...
Loading historical data...
Loading historical data...
Loading historical data...
Loading historical data...
Loading historical data...
Loading historical data...
Loading historical data...

TITAN 3C TRANSTAGE R/B Visibility forecast

Observer location: undefined°, undefined°

Span
Click to sort rows by Start time (UTC) header in descending order
Start Az.
Max El. time (UTC)
Max El. Az.
Max El.
End time (UTC)
End Az.
1440 mins2025-05-09 18:22:11.158Z102.247° ESE2025-05-10 15:35:11.158Z114.333° SE30.306°2025-05-10 18:22:11.158Z118.091° SE
|